Location: Bayshore Village Mobile Home Park
(26.6945°N, 81.8642°W)
Time: 14:19:56
(UTC+00:00)

Cosmos 2322 Rocket - Pass Details

Date: 17 June 2021
Orbit: 833 x 850 km, 71.0° (Epoch: 26 July)

Event Time Altitude Azimuth Distance (km) Brightness Sun altitude
Rises 00:59:26 0° 169° (S) 3,388 4.9 -8.0°
Reaches altitude 10° 01:02:14 10° 157° (SSE) 2,459 4.1 -8.5°
Maximum altitude 01:06:50 26° 102° (ESE) 1,601 3.1 -9.4°
Drops below altitude 10° 01:11:28 10° 47° (NE) 2,474 4.5 -10.3°
Sets 01:14:16 0° 35° (NE) 3,414 5.3 -10.8°
